Погода в Рязани

Погода в Рязани : погода сейчас, прогноз погоды и архив. Всё, что Вы хотите узнать о погоде в Рязани!

Хотите узнать прогноз погоды в Рязани? Тогда Вам сюда: Погода в Рязани

Поиск расширенной информации на нашем сайте:

Другие новости

Новости СМИ2

Главная страница сайта

Новости сайта

03.07.2017

Напоминаем, что на нашем специализированном сайте Метеоцентр.Азия вы можете получить высокодетализированные автоматические прогнозы погоды по пунктам России, СНГ и мира в авиационном формате (включающие направление и скорость ветра, видимость, явления погоды, количество и форму облачности, нижнюю и верхнюю границу облачности).

Рекомендуем: Информация medicine на нашем сайте.

Погода в Рязани - сегодня

Время (UTC), дата Ветер
(°,м/с) 
Видим.   Явления Облачность Т
(°С)
Тd
(°С)
f(%) Тe
(°С)
Pmin
(гПа)
dP
(гПа)
Po
(мм)
O2
(г/м3)
Тmin Tmax R s Состояние
почвы
12 18.10.17 230 (ЮЗ) 4{10}  20000 м    10/10 300 м 
[Sc]
+12.1 +9.2 82 +12  1006.4  -1.6  741  284           
15 18.10.17 230 (ЮЗ) 20000 м  {ливн. осадки}  10/10 300 м 
[Sc]
+11.6 +9.8 89 +12  1006.1  -0.4  741  284    +12.1  0.0     
18 18.10.17 260 (З) 2{11}  10 км  {ливн. осадки}  9/0 средняя 
[Ac trans]
+11.1 +9.7 91 +12  1006.4  0.3  741  285           
21 18.10.17 270 (З) 20000 м    ясно 
+9.7 +7.1 84 +9  1006.9  0.3  741  287           
00 19.10.17 260 (З) 20000 м    3/0 средняя 
[Ac trans]
+8.6 +6.2 85 +9  1007.9  0.9  742  289           
03 19.10.17 310 (СЗ) 3{11}  20000 м    3/0 средняя 
[Ac trans]
+6.9 +2.7 75 +6  1010.2  2.1  743  292  +6.9        влажная 
06 19.10.17 310 (СЗ) 20000 м    3/0 верхняя 
[Ci fib]
+5.8 +2.2 78 +5  1013  2.7  745  294  +4.4         
09 19.10.17 300 (СЗ) 20000 м    4/1 600 м верхняя 
[Cu hum|Ci fib]
+8.7 +1.4 60 +8  1013.9  746  291           
12 19.10.17 310 (СЗ) 20000 м    6/6 600 м 
[Cu hum]
+8.2 +1.1 61 +8  1015.2  1.3  747  292           
15 19.10.17 270 (З) 20000 м    1/0 средняя 
[Ac trans]
+5.2 +1.3 76 +6  1016.2  0.7  748  295    +9.8       
18 19.10.17 270 (З) 20000 м    8/8 600 м 
[Sc]
+3.8 +1.5 85 +5  1017.6  1.3  749  297           
21 19.10.17 тихо ()   10 км    9/9 600 м 
[Sc]
+1.6 +1 96 +2  1018.2  0.4  749  300           
00 20.10.17 290 (З) 10 км    4/0 средняя 
[Ac trans]
+1.9 +1.3 96 +3  1018.8  0.6  749  300           
03 20.10.17 тихо ()   10 км    ясно 
+0.2 -0.1 98 1019.8  0.8  750  302  +0.2        влажная 
06 20.10.17 300 (СЗ) 10 км    6/4 600 м средняя 
[Cu hum|Ac trans]
+2.1 +1.9 99 +3  1020.8  1.2  751  300  -0.7         
09 20.10.17 320 (СЗ) 20000 м    8/8 600 м 
[Cu med, cong]
+6.8 +2.2 72 +7  1021.2  0.6  751  295           
12 20.10.17 350 (С) 20000 м    10/10 600 м 
[Cu med, cong]
+6.9 +1.6 69 +6  1021  -0.2  751  295           
15 20.10.17 310 (СЗ) 20000 м    10/10 600 м 
[Sc diur, vesp]
+4.8 +2 82 +6  1021.2  0.1  751  297    +8.4       
18 20.10.17 тихо ()   10 км    10/10 600 м 
[Sc diur, vesp]
+1.9 +1.3 96 +2  1021.7  0.2  752  301           
21 20.10.17 тихо ()   10 км    10/10 600 м 
[Sc diur, vesp]
+1.8 +1.4 97 +2  1021.3  -0.4  751  300           
00 21.10.17 тихо ()   10 км  {ливн. осадки}  10/10 600 м кучево-дожд. 
[Cb cap]
+2.2 +1.9 98 +2  1020.3  -0.9  751  300           
03 21.10.17 тихо ()   н/о    н/о 
+1.1 +0.8 98 +1  1019.8  -0.6  750  301  +1.1    0.8     
06 21.10.17 290 (З) 10 км    9/3 600 м средняя 
[Sc|Ac trans]
+1.6 +1.3 98 +2  1019.7  750  300  +0.1         
09 21.10.17 310 (СЗ) 20000 м    8/6 300 м средняя 
[Sc|Ac trans]
+5.7 +0.8 71 +5  1019  750  296           
12 21.10.17 330 (СЗ) 20000 м    8/8 300 м 
[Sc]
+4.3 -0.4 71 +3  1018.3  -0.8  749  297           
Время (UTC), дата Ветер
(°,м/с) 
Видим.   Явления Облачность Т
(°С)
Тd
(°С)
f(%) Тe
(°С)
Pmin
(гПа)
dP
(гПа)
Po
(мм)
O2
(г/м3)
Тmin Tmax R s Состояние
почвы

Для получения пояснительной информации подведите курсор к названию столбца.

ПОГОДА в Рязани - архив

Всё, что Вы хотите узнать о погоде в Рязани - удобно и подробно!

Выберите нужную дату (начиная с 1 января 2015* года) и нажмите кнопку "Найти".
Будут отображены архивные сводки погоды по пункту Рязань, начиная с указанной даты.


Отображать данные в формате CSV (для использования в таблицах Excel)


Внимание! Наш архив погоды предназначен исключительно для личного некоммерческого использования в познавательных целях. Если Вам необходимы официальные справки о состоянии погоды (для производственных, юридических, коммерческих и т.п. целей), обращайтесь в органы Росгидромета.

*Примечание: данная дата относится к архиву по метеостанциям СССР (Россия, СНГ, Балтия).
Архив по метеостанциям Зарубежной Европы и Азии (кроме Китая) хранится 10 дней, по другим регионам земного шара (Китай, Африка, Америка, Австралия, Океания) - 1 день.

Рязань - район местоположения метеостанции


Название, широта, долгота, высота метеостанции:
Рязань 54.6°ш. 39.7°д. 158 м над ур. моря [Российская Федерация]

Дополнительная информация

В oтличие oт бoльшинства пoгoдных сайтoв мы публикуем пoдрoбную метеoинфoрмацию в детальнoм прoфессиoнальнoм фoрмате.

Характеристики температуры и влажнoсти вoздуха измеряются на высoте 2 м в тени вдали oт зданий и деревьев.
Скoрoсть ветра измеряется на высoте 10 м (на урoвне рoста челoвека скoрoсть ветра ниже в 1.5-2 раза). Если метеoстанция нахoдится в гoрoде или в лесу, тo скoрoсть ветра занижена на 2-4 м/с пo сравнению с oткрытым местoм. Скoрoсть ветра над акватoриями крупных рек и oзёр, а также на вершинах хoлмoв на 2-5 м/с выше, чем в oбычных услoвиях.
Атмoсфернoе давление в разных тoчках местнoсти мoжет значительнo oтличаться oт давления на метеoстанции, в зависимoсти oт услoвий рельефа (при пoдъёме на 10 м давление пoнижается примернo на 1 мм рт.ст.).